Sarah D — WDI9093 — position and weather

sailwx.info

Track history (hours):
 
Tides and Currents Weather Stations Pressure Air Temp Water Temp Dewpoint Dewpoint Depression Visibility Wind Speed Wind Dir Waves Ship Positions

Sarah D

Owner: New York State Marine Highway Transportation LLC, Troy, NY. More information available from US FCC via Universal Licensing System and Coast Guard Vessel Documentation Center.

Last reported at 2017-Dec-13 02:01 UTC. Time now 2017-Dec-16 11:25 UTC.
Position N 40°55' W 073°55'.

Length 29 m; draft 4 m.

Type: Towing. MMSI: 367177370.

Date/timePositionNaut miles runAvg speedWind from/ knotsBaromVisibWave heightAir tempDewpointWater temp
2017-Dec-13 02:01N 40°55' W 073°55'0 5.6
2017-Dec-13 02:00N 40°55' W 073°55'3 5.7
2017-Dec-13 01:30N 40°52' W 073°57'3 6.0
2017-Dec-13 01:00N 40°50' W 073°58'3 6.5
2017-Dec-13 00:30N 40°47' W 074°00'3 7.0
2017-Dec-13 00:00N 40°43' W 074°02'3 6.7
2017-Dec-12 23:30N 40°40' W 074°02'1 1.3
2017-Dec-12 23:00N 40°39' W 074°02'2 3.9
2017-Dec-12 22:30N 40°39' W 074°04'4 7.8
2017-Dec-12 22:00N 40°39' W 074°09'2 4.5
2017-Dec-12 21:30N 40°38' W 074°12'2 3.7
2017-Dec-12 20:57N 40°39' W 074°10'4 9.4
2017-Dec-12 20:30N 40°39' W 074°04'510.3
2017-Dec-12 20:00N 40°34' W 074°01'13 5.8
2017-Dec-12 17:47N 40°38' W 073°45'0 0.7
2017-Dec-12 17:27N 40°38' W 073°45'3 7.0
2017-Dec-12 17:00N 40°36' W 073°48'3 5.2
2017-Dec-12 16:28N 40°35' W 073°52'6 0.9
2017-Dec-12 09:14N 40°38' W 073°45'0 1.3
2017-Dec-12 09:00N 40°38' W 073°45'4 6.9
2017-Dec-12 08:23N 40°35' W 073°50'3 8.9
2017-Dec-12 08:00N 40°34' W 073°54'2 4.2
2017-Dec-12 07:30N 40°34' W 073°56'4 7.1
2017-Dec-12 07:00N 40°35' W 074°01'2 3.2
2017-Dec-12 06:30N 40°36' W 074°02'3 6.2
2017-Dec-12 06:00N 40°39' W 074°02'4 7.4
2017-Dec-12 05:30N 40°42' W 073°60'3 6.9
2017-Dec-12 05:00N 40°45' W 073°57'4 8.0
2017-Dec-12 04:29N 40°48' W 073°53'6 2.4
2017-Dec-12 01:50N 40°51' W 073°46'3 9.1
2017-Dec-12 01:30N 40°48' W 073°47'5 8.3
2017-Dec-12 00:57N 40°48' W 073°54'3 6.2
2017-Dec-12 00:30N 40°46' W 073°57'3 6.4
2017-Dec-12 00:00N 40°44' W 073°58'3 7.0
2017-Dec-11 23:30N 40°41' W 074°01'5 9.1
2017-Dec-11 23:00N 40°39' W 074°07'4 8.5
2017-Dec-11 22:30N 40°38' W 074°12'0 0.3
2017-Dec-11 21:58N 40°38' W 074°12'2 4.0
2017-Dec-11 21:30N 40°39' W 074°10'2 3.5
2017-Dec-11 20:57N 40°39' W 074°08'3 5.6
2017-Dec-11 20:30N 40°39' W 074°04'3 5.4
2017-Dec-11 20:00N 40°40' W 074°01'1 1.3
2017-Dec-11 19:31N 40°40' W 074°00'0 0.0
2017-Dec-11 19:00N 40°40' W 074°00'0 0.0
2017-Dec-11 18:30N 40°40' W 074°00'3 6.2
2017-Dec-11 18:00N 40°39' W 074°04'2 0.6
2017-Dec-11 14:46N 40°39' W 074°07'2 9.7
2017-Dec-11 14:30N 40°39' W 074°03'3 5.3
2017-Dec-11 14:01N 40°40' W 074°00'0 0.2
2017-Dec-11 13:30N 40°40' W 074°00'0 0.2
2017-Dec-11 13:00N 40°40' W 074°00'5 9.3
2017-Dec-11 12:30N 40°39' W 074°06'0 0.6
2017-Dec-11 12:00N 40°39' W 074°07'1 2.1
2017-Dec-11 11:30N 40°39' W 074°05'2 5.0
2017-Dec-11 11:00N 40°39' W 074°02'1 2.4
2017-Dec-11 10:30N 40°38' W 074°03'1 1.0
2017-Dec-11 10:00N 40°38' W 074°03'2 3.4
2017-Dec-11 09:30N 40°36' W 074°02'2 3.8
2017-Dec-11 09:00N 40°34' W 074°01'2 3.0
2017-Dec-11 08:29N 40°34' W 073°59'2 3.1
2017-Dec-11 07:50N 40°34' W 073°56'1 4.0
2017-Dec-11 07:30N 40°34' W 073°55'1 1.3
2017-Dec-11 06:58N 40°34' W 073°54'8 4.7
2017-Dec-11 05:20N 40°38' W 073°45'0 0.0
2017-Dec-11 04:27N 40°38' W 073°45'0 0.0
2017-Dec-10 19:30N 40°38' W 073°45'0 0.0
2017-Dec-10 18:05N 40°38' W 073°45'1 9.6
2017-Dec-10 17:59N 40°37' W 073°46'3 6.6
2017-Dec-10 17:30N 40°35' W 073°49'510.8
2017-Dec-10 17:00N 40°34' W 073°56'4 8.4
2017-Dec-10 16:30N 40°35' W 074°01'4 9.0
2017-Dec-10 16:00N 40°39' W 074°02'0 0.2
2017-Dec-10 15:31N 40°39' W 074°02'4 8.2
2017-Dec-10 15:00N 40°43' W 074°01'5 9.6
2017-Dec-10 14:29N 40°48' W 073°59'5 9.7
2017-Dec-10 14:00N 40°52' W 073°56'  
2017-Dec-08 01:59N 40°55' W 073°56'3 5.2
2017-Dec-08 01:30N 40°52' W 073°57'3 5.1
2017-Dec-08 00:59N 40°50' W 073°58'2 4.5
2017-Dec-08 00:30N 40°48' W 073°59'2 4.5
2017-Dec-08 00:00N 40°46' W 074°01'2 3.6
2017-Dec-07 23:30N 40°44' W 074°01'2 3.8
2017-Dec-07 23:00N 40°43' W 074°02'2 3.8
2017-Dec-07 22:30N 40°41' W 074°02'1 2.8
2017-Dec-07 22:00N 40°39' W 074°02'0 0.0
2017-Dec-07 21:30N 40°39' W 074°02'1 2.5
2017-Dec-07 21:01N 40°40' W 074°01'612.3
2017-Dec-07 20:29N 40°46' W 073°57'9 1.4
2017-Dec-07 14:22N 40°50' W 073°47'2 5.7
2017-Dec-07 13:57N 40°48' W 073°49'3 6.8
2017-Dec-07 13:28N 40°48' W 073°54'4 8.0
2017-Dec-07 13:00N 40°46' W 073°57'2 5.0
2017-Dec-07 12:30N 40°43' W 073°58'4 7.6
2017-Dec-07 12:00N 40°40' W 074°02'1 2.2
2017-Dec-07 11:30N 40°39' W 074°02'0 0.7
2017-Dec-07 11:00N 40°40' W 074°02'4 8.2
2017-Dec-07 10:30N 40°44' W 074°01'5 9.0
2017-Dec-07 10:00N 40°48' W 073°59'4 9.0
2017-Dec-07 09:30N 40°52' W 073°56'  
2017-Dec-04 10:30N 40°38' W 074°04'0 0.1
2017-Dec-04 10:00N 40°38' W 074°04'0 0.1
2017-Dec-04 09:30N 40°38' W 074°04'0 0.1
2017-Dec-04 09:00N 40°38' W 074°03'0 0.1
2017-Dec-04 08:28N 40°38' W 074°04'0 0.1
2017-Dec-04 08:01N 40°37' W 074°04'0 0.6
2017-Dec-04 07:30N 40°37' W 074°04'3 5.1
2017-Dec-04 07:00N 40°39' W 074°02'0 0.0
2017-Dec-04 06:30N 40°39' W 074°02'0 0.0
2017-Dec-04 06:00N 40°39' W 074°02'0 0.0
2017-Dec-04 05:30N 40°39' W 074°02'0 0.0
2017-Dec-04 05:00N 40°39' W 074°02'0 0.0
2017-Dec-04 04:30N 40°39' W 074°02'0 0.0
2017-Dec-04 04:00N 40°39' W 074°02'0 0.0
2017-Dec-04 03:30N 40°39' W 074°02'0 0.0
2017-Dec-04 03:00N 40°39' W 074°02'0 0.0
2017-Dec-04 02:30N 40°39' W 074°02'0 0.1
2017-Dec-04 02:00N 40°39' W 074°02'0 0.1
2017-Dec-04 01:30N 40°40' W 074°02'0 0.1
2017-Dec-04 01:00N 40°40' W 074°02'0 0.0
2017-Dec-04 00:30N 40°40' W 074°02'0 0.0
2017-Dec-04 00:00N 40°40' W 074°02'0 0.3
2017-Dec-03 23:31N 40°40' W 074°02'2 3.5
2017-Dec-03 23:00N 40°38' W 074°04'3 5.2
2017-Dec-03 22:30N 40°39' W 074°07'0 0.1
2017-Dec-03 21:59N 40°39' W 074°07'4 8.4
2017-Dec-03 21:30N 40°40' W 074°02'4 8.9
2017-Dec-03 21:00N 40°43' W 073°58'5 8.8
2017-Dec-03 20:24N 40°48' W 073°54'6 2.3
2017-Dec-03 17:37N 40°50' W 073°47'1 8.3
2017-Dec-03 17:30N 40°49' W 073°47'3 6.6
2017-Dec-03 17:00N 40°48' W 073°51'3 5.4
2017-Dec-03 16:24N 40°47' W 073°55'2 3.5
2017-Dec-03 15:58N 40°46' W 073°57'2 4.5
2017-Dec-03 15:30N 40°44' W 073°58'2 4.8
2017-Dec-03 15:00N 40°42' W 073°60'3 7.0
2017-Dec-03 14:30N 40°39' W 074°02'1 2.9
2017-Dec-03 14:00N 40°40' W 074°01'0 0.0
2017-Dec-03 13:30N 40°40' W 074°01'0 0.0
2017-Dec-03 13:00N 40°40' W 074°01'0 0.0
2017-Dec-03 12:30N 40°40' W 074°01'0 0.0
2017-Dec-03 12:00N 40°40' W 074°01'0 0.0
2017-Dec-03 11:30N 40°40' W 074°01'0 0.0
2017-Dec-03 11:00N 40°40' W 074°01'0 0.0
2017-Dec-03 10:30N 40°40' W 074°01'0 0.0
2017-Dec-03 10:00N 40°40' W 074°01'1 2.2
2017-Dec-03 09:30N 40°39' W 074°02'2 3.2
2017-Dec-03 09:00N 40°41' W 074°02'5 9.1
2017-Dec-03 08:30N 40°46' W 074°01'5 9.8
2017-Dec-03 08:00N 40°50' W 073°58'610.5
2017-Dec-03 07:28N 40°55' W 073°55'  
Track history (hours):
 
Tides and Currents Weather Stations Pressure Air Temp Water Temp Dewpoint Dewpoint Depression Visibility Wind Speed Wind Dir Waves Ship Positions

Sarah D

Owner: New York State Marine Highway Transportation LLC, Troy, NY. More information available from US FCC via Universal Licensing System and Coast Guard Vessel Documentation Center.

Last reported at 2017-Dec-13 02:01 UTC. Time now 2017-Dec-16 11:25 UTC.
Position N 40°55' W 073°55'.

Length 29 m; draft 4 m.

Type: Towing. MMSI: 367177370.

Date/timePositionNaut miles runAvg speedWind from/ knotsBaromVisibWave heightAir tempDewpointWater temp
2017-Dec-13 02:01N 40°55' W 073°55'0 5.6
2017-Dec-13 02:00N 40°55' W 073°55'3 5.7
2017-Dec-13 01:30N 40°52' W 073°57'3 6.0
2017-Dec-13 01:00N 40°50' W 073°58'3 6.5
2017-Dec-13 00:30N 40°47' W 074°00'3 7.0
2017-Dec-13 00:00N 40°43' W 074°02'3 6.7
2017-Dec-12 23:30N 40°40' W 074°02'1 1.3
2017-Dec-12 23:00N 40°39' W 074°02'2 3.9
2017-Dec-12 22:30N 40°39' W 074°04'4 7.8
2017-Dec-12 22:00N 40°39' W 074°09'2 4.5
2017-Dec-12 21:30N 40°38' W 074°12'2 3.7
2017-Dec-12 20:57N 40°39' W 074°10'4 9.4
2017-Dec-12 20:30N 40°39' W 074°04'510.3
2017-Dec-12 20:00N 40°34' W 074°01'13 5.8
2017-Dec-12 17:47N 40°38' W 073°45'0 0.7
2017-Dec-12 17:27N 40°38' W 073°45'3 7.0
2017-Dec-12 17:00N 40°36' W 073°48'3 5.2
2017-Dec-12 16:28N 40°35' W 073°52'6 0.9
2017-Dec-12 09:14N 40°38' W 073°45'0 1.3
2017-Dec-12 09:00N 40°38' W 073°45'4 6.9
2017-Dec-12 08:23N 40°35' W 073°50'3 8.9
2017-Dec-12 08:00N 40°34' W 073°54'2 4.2
2017-Dec-12 07:30N 40°34' W 073°56'4 7.1
2017-Dec-12 07:00N 40°35' W 074°01'2 3.2
2017-Dec-12 06:30N 40°36' W 074°02'3 6.2
2017-Dec-12 06:00N 40°39' W 074°02'4 7.4
2017-Dec-12 05:30N 40°42' W 073°60'3 6.9
2017-Dec-12 05:00N 40°45' W 073°57'4 8.0
2017-Dec-12 04:29N 40°48' W 073°53'6 2.4
2017-Dec-12 01:50N 40°51' W 073°46'3 9.1
2017-Dec-12 01:30N 40°48' W 073°47'5 8.3
2017-Dec-12 00:57N 40°48' W 073°54'3 6.2
2017-Dec-12 00:30N 40°46' W 073°57'3 6.4
2017-Dec-12 00:00N 40°44' W 073°58'3 7.0
2017-Dec-11 23:30N 40°41' W 074°01'5 9.1
2017-Dec-11 23:00N 40°39' W 074°07'4 8.5
2017-Dec-11 22:30N 40°38' W 074°12'0 0.3
2017-Dec-11 21:58N 40°38' W 074°12'2 4.0
2017-Dec-11 21:30N 40°39' W 074°10'2 3.5
2017-Dec-11 20:57N 40°39' W 074°08'3 5.6
2017-Dec-11 20:30N 40°39' W 074°04'3 5.4
2017-Dec-11 20:00N 40°40' W 074°01'1 1.3
2017-Dec-11 19:31N 40°40' W 074°00'0 0.0
2017-Dec-11 19:00N 40°40' W 074°00'0 0.0
2017-Dec-11 18:30N 40°40' W 074°00'3 6.2
2017-Dec-11 18:00N 40°39' W 074°04'2 0.6
2017-Dec-11 14:46N 40°39' W 074°07'2 9.7
2017-Dec-11 14:30N 40°39' W 074°03'3 5.3
2017-Dec-11 14:01N 40°40' W 074°00'0 0.2
2017-Dec-11 13:30N 40°40' W 074°00'0 0.2
2017-Dec-11 13:00N 40°40' W 074°00'5 9.3
2017-Dec-11 12:30N 40°39' W 074°06'0 0.6
2017-Dec-11 12:00N 40°39' W 074°07'1 2.1
2017-Dec-11 11:30N 40°39' W 074°05'2 5.0
2017-Dec-11 11:00N 40°39' W 074°02'1 2.4
2017-Dec-11 10:30N 40°38' W 074°03'1 1.0
2017-Dec-11 10:00N 40°38' W 074°03'2 3.4
2017-Dec-11 09:30N 40°36' W 074°02'2 3.8
2017-Dec-11 09:00N 40°34' W 074°01'2 3.0
2017-Dec-11 08:29N 40°34' W 073°59'2 3.1
2017-Dec-11 07:50N 40°34' W 073°56'1 4.0
2017-Dec-11 07:30N 40°34' W 073°55'1 1.3
2017-Dec-11 06:58N 40°34' W 073°54'8 4.7
2017-Dec-11 05:20N 40°38' W 073°45'0 0.0
2017-Dec-11 04:27N 40°38' W 073°45'0 0.0
2017-Dec-10 19:30N 40°38' W 073°45'0 0.0
2017-Dec-10 18:05N 40°38' W 073°45'1 9.6
2017-Dec-10 17:59N 40°37' W 073°46'3 6.6
2017-Dec-10 17:30N 40°35' W 073°49'510.8
2017-Dec-10 17:00N 40°34' W 073°56'4 8.4
2017-Dec-10 16:30N 40°35' W 074°01'4 9.0
2017-Dec-10 16:00N 40°39' W 074°02'0 0.2
2017-Dec-10 15:31N 40°39' W 074°02'4 8.2
2017-Dec-10 15:00N 40°43' W 074°01'5 9.6
2017-Dec-10 14:29N 40°48' W 073°59'5 9.7
2017-Dec-10 14:00N 40°52' W 073°56'  
2017-Dec-08 01:59N 40°55' W 073°56'3 5.2
2017-Dec-08 01:30N 40°52' W 073°57'3 5.1
2017-Dec-08 00:59N 40°50' W 073°58'2 4.5
2017-Dec-08 00:30N 40°48' W 073°59'2 4.5
2017-Dec-08 00:00N 40°46' W 074°01'2 3.6
2017-Dec-07 23:30N 40°44' W 074°01'2 3.8
2017-Dec-07 23:00N 40°43' W 074°02'2 3.8
2017-Dec-07 22:30N 40°41' W 074°02'1 2.8
2017-Dec-07 22:00N 40°39' W 074°02'0 0.0
2017-Dec-07 21:30N 40°39' W 074°02'1 2.5
2017-Dec-07 21:01N 40°40' W 074°01'612.3
2017-Dec-07 20:29N 40°46' W 073°57'9 1.4
2017-Dec-07 14:22N 40°50' W 073°47'2 5.7
2017-Dec-07 13:57N 40°48' W 073°49'3 6.8
2017-Dec-07 13:28N 40°48' W 073°54'4 8.0
2017-Dec-07 13:00N 40°46' W 073°57'2 5.0
2017-Dec-07 12:30N 40°43' W 073°58'4 7.6
2017-Dec-07 12:00N 40°40' W 074°02'1 2.2
2017-Dec-07 11:30N 40°39' W 074°02'0 0.7
2017-Dec-07 11:00N 40°40' W 074°02'4 8.2
2017-Dec-07 10:30N 40°44' W 074°01'5 9.0
2017-Dec-07 10:00N 40°48' W 073°59'4 9.0
2017-Dec-07 09:30N 40°52' W 073°56'  
2017-Dec-04 10:30N 40°38' W 074°04'0 0.1
2017-Dec-04 10:00N 40°38' W 074°04'0 0.1
2017-Dec-04 09:30N 40°38' W 074°04'0 0.1
2017-Dec-04 09:00N 40°38' W 074°03'0 0.1
2017-Dec-04 08:28N 40°38' W 074°04'0 0.1
2017-Dec-04 08:01N 40°37' W 074°04'0 0.6
2017-Dec-04 07:30N 40°37' W 074°04'3 5.1
2017-Dec-04 07:00N 40°39' W 074°02'0 0.0
2017-Dec-04 06:30N 40°39' W 074°02'0 0.0
2017-Dec-04 06:00N 40°39' W 074°02'0 0.0
2017-Dec-04 05:30N 40°39' W 074°02'0 0.0
2017-Dec-04 05:00N 40°39' W 074°02'0 0.0
2017-Dec-04 04:30N 40°39' W 074°02'0 0.0
2017-Dec-04 04:00N 40°39' W 074°02'0 0.0
2017-Dec-04 03:30N 40°39' W 074°02'0 0.0
2017-Dec-04 03:00N 40°39' W 074°02'0 0.0
2017-Dec-04 02:30N 40°39' W 074°02'0 0.1
2017-Dec-04 02:00N 40°39' W 074°02'0 0.1
2017-Dec-04 01:30N 40°40' W 074°02'0 0.1
2017-Dec-04 01:00N 40°40' W 074°02'0 0.0
2017-Dec-04 00:30N 40°40' W 074°02'0 0.0
2017-Dec-04 00:00N 40°40' W 074°02'0 0.3
2017-Dec-03 23:31N 40°40' W 074°02'2 3.5
2017-Dec-03 23:00N 40°38' W 074°04'3 5.2
2017-Dec-03 22:30N 40°39' W 074°07'0 0.1
2017-Dec-03 21:59N 40°39' W 074°07'4 8.4
2017-Dec-03 21:30N 40°40' W 074°02'4 8.9
2017-Dec-03 21:00N 40°43' W 073°58'5 8.8
2017-Dec-03 20:24N 40°48' W 073°54'6 2.3
2017-Dec-03 17:37N 40°50' W 073°47'1 8.3
2017-Dec-03 17:30N 40°49' W 073°47'3 6.6
2017-Dec-03 17:00N 40°48' W 073°51'3 5.4
2017-Dec-03 16:24N 40°47' W 073°55'2 3.5
2017-Dec-03 15:58N 40°46' W 073°57'2 4.5
2017-Dec-03 15:30N 40°44' W 073°58'2 4.8
2017-Dec-03 15:00N 40°42' W 073°60'3 7.0
2017-Dec-03 14:30N 40°39' W 074°02'1 2.9
2017-Dec-03 14:00N 40°40' W 074°01'0 0.0
2017-Dec-03 13:30N 40°40' W 074°01'0 0.0
2017-Dec-03 13:00N 40°40' W 074°01'0 0.0
2017-Dec-03 12:30N 40°40' W 074°01'0 0.0
2017-Dec-03 12:00N 40°40' W 074°01'0 0.0
2017-Dec-03 11:30N 40°40' W 074°01'0 0.0
2017-Dec-03 11:00N 40°40' W 074°01'0 0.0
2017-Dec-03 10:30N 40°40' W 074°01'0 0.0
2017-Dec-03 10:00N 40°40' W 074°01'1 2.2
2017-Dec-03 09:30N 40°39' W 074°02'2 3.2
2017-Dec-03 09:00N 40°41' W 074°02'5 9.1
2017-Dec-03 08:30N 40°46' W 074°01'5 9.8
2017-Dec-03 08:00N 40°50' W 073°58'610.5
2017-Dec-03 07:28N 40°55' W 073°55'  

Dump ship's entire track history